Location: Unspecified
(49.9820°N, 20.4363°E)
Time: 14:01:15
(UTC+02:00)

ISS - Pass Details

Date: 25 May 2018
Orbit: 402 x 407 km, 51.6° (Epoch: 20 May)

Event Time Altitude Azimuth Distance (km) Brightness Sun altitude
Rises 23:36:52 0° 281° (W) 2,321 0.4 -17.8°
Reaches altitude 10° 23:38:58 10° 284° (WNW) 1,460 -0.7 -17.9°
Maximum altitude 23:42:14 68° 8° (N) 439 -3.6 -18.0°
Enters shadow 23:44:27 19° 89° (E) 1,045 -1.9 -18.1°
